Date_Time,Julian_Date,Latitude,Longitude,Instrument_Depth,U,V,Speed,Direction
(yyyy-mm-dd hh:mn:ss UTC),(JD),(+ deg. North),(+ deg. East),(m),(cm/s),(cm/s),(cm/s),(deg True)
1984-06-14 16:00:00 UTC,2445866.166667,29.6633,-93.3933,0082,10.88,-5.07,12.0000,115.0000
1984-06-14 16:30:00 UTC,2445866.187500,29.6633,-93.3933,0082,9.33,-5.83,11.0000,122.0000
1984-06-14 17:00:00 UTC,2445866.208333,29.6633,-93.3933,0082,7.91,-7.64,11.0000,134.0000
1984-06-14 17:30:00 UTC,2445866.229167,29.6633,-93.3933,0082,6.31,-9.01,11.0000,145.0000
1984-06-14 18:00:00 UTC,2445866.250000,29.6633,-93.3933,0082,4.82,-9.89,11.0000,154.0000
1984-06-14 18:30:00 UTC,2445866.270833,29.6633,-93.3933,0082,3.22,-10.52,11.0000,163.0000
1984-06-14 19:00:00 UTC,2445866.291667,29.6633,-93.3933,0082,0.70,-9.98,10.0000,176.0000
1984-06-14 19:30:00 UTC,2445866.312500,29.6633,-93.3933,0082,-2.42,-9.70,10.0000,194.0000
1984-06-14 20:00:00 UTC,2445866.333333,29.6633,-93.3933,0082,-5.00,-8.66,10.0000,210.0000
1984-06-14 20:30:00 UTC,2445866.354167,29.6633,-93.3933,0082,-7.22,-8.30,11.0000,221.0000
1984-06-14 21:00:00 UTC,2445866.375000,29.6633,-93.3933,0082,-8.04,-7.50,11.0000,227.0000
1984-06-14 21:30:00 UTC,2445866.395833,29.6633,-93.3933,0082,-9.19,-7.71,12.0000,230.0000
1984-06-14 22:00:00 UTC,2445866.416667,29.6633,-93.3933,0082,-9.58,-7.22,12.0000,233.0000
1984-06-14 22:30:00 UTC,2445866.437500,29.6633,-93.3933,0082,-10.18,-6.36,12.0000,238.0000
1984-06-14 23:00:00 UTC,2445866.458333,29.6633,-93.3933,0082,-11.97,-5.08,13.0000,247.0000
1984-06-14 23:30:00 UTC,2445866.479167,29.6633,-93.3933,0082,-11.69,-2.70,12.0000,257.0000
1984-06-15 00:00:00 UTC,2445866.500000,29.6633,-93.3933,0082,-9.88,-1.56,10.0000,261.0000
1984-06-15 00:30:00 UTC,2445866.520833,29.6633,-93.3933,0082,-7.96,-0.84,8.0000,264.0000
1984-06-15 01:00:00 UTC,2445866.541667,29.6633,-93.3933,0082,-7.00,-0.00,7.0000,270.0000
1984-06-15 01:30:00 UTC,2445866.562500,29.6633,-93.3933,0082,-5.97,0.63,6.0000,276.0000
1984-06-15 02:00:00 UTC,2445866.583333,29.6633,-93.3933,0082,-4.76,1.55,5.0000,288.0000
1984-06-15 02:30:00 UTC,2445866.604167,29.6633,-93.3933,0082,-5.20,3.00,6.0000,300.0000
1984-06-15 03:00:00 UTC,2445866.625000,29.6633,-93.3933,0082,-6.13,5.14,8.0000,310.0000
1984-06-15 03:30:00 UTC,2445866.645833,29.6633,-93.3933,0082,-7.64,7.91,11.0000,316.0000
1984-06-15 04:00:00 UTC,2445866.666667,29.6633,-93.3933,0082,-6.77,8.67,11.0000,322.0000
1984-06-15 04:30:00 UTC,2445866.687500,29.6633,-93.3933,0082,-5.82,10.50,12.0000,331.0000
1984-06-15 05:00:00 UTC,2445866.708333,29.6633,-93.3933,0082,-5.69,12.79,14.0000,336.0000
1984-06-15 05:30:00 UTC,2445866.729167,29.6633,-93.3933,0082,-7.04,13.24,15.0000,332.0000
1984-06-15 06:00:00 UTC,2445866.750000,29.6633,-93.3933,0082,-8.62,11.03,14.0000,322.0000
1984-06-15 06:30:00 UTC,2445866.770833,29.6633,-93.3933,0082,-8.87,9.51,13.0000,317.0000
1984-06-15 07:00:00 UTC,2445866.791667,29.6633,-93.3933,0082,-7.22,8.30,11.0000,319.0000
1984-06-15 07:30:00 UTC,2445866.812500,29.6633,-93.3933,0082,-5.29,7.28,9.0000,324.0000
1984-06-15 08:00:00 UTC,2445866.833333,29.6633,-93.3933,0082,-3.78,4.66,6.0000,321.0000
1984-06-15 08:30:00 UTC,2445866.854167,29.6633,-93.3933,0082,-3.80,1.24,4.0000,288.0000
1984-06-15 09:00:00 UTC,2445866.875000,29.6633,-93.3933,0082,-3.88,-0.97,4.0000,256.0000
1984-06-15 09:30:00 UTC,2445866.895833,29.6633,-93.3933,0082,-2.74,-1.22,3.0000,246.0000
1984-06-15 10:00:00 UTC,2445866.916667,29.6633,-93.3933,0082,-2.26,-1.97,3.0000,229.0000
1984-06-15 10:30:00 UTC,2445866.937500,29.6633,-93.3933,0082,-2.46,-3.15,4.0000,218.0000
1984-06-15 11:00:00 UTC,2445866.958333,29.6633,-93.3933,0082,-1.94,-3.50,4.0000,209.0000
1984-06-15 11:30:00 UTC,2445866.979167,29.6633,-93.3933,0082,-0.97,-3.88,4.0000,194.0000
1984-06-15 12:00:00 UTC,2445867.000000,29.6633,-93.3933,0082,-0.26,-4.99,5.0000,183.0000
1984-06-15 12:30:00 UTC,2445867.020833,29.6633,-93.3933,0082,0.09,-5.00,5.0000,179.0000
1984-06-15 13:00:00 UTC,2445867.041667,29.6633,-93.3933,0082,-0.17,-5.00,5.0000,182.0000
1984-06-15 13:30:00 UTC,2445867.062500,29.6633,-93.3933,0082,-1.30,-3.78,4.0000,199.0000
1984-06-15 14:00:00 UTC,2445867.083333,29.6633,-93.3933,0082,-2.52,-3.11,4.0000,219.0000
1984-06-15 14:30:00 UTC,2445867.104167,29.6633,-93.3933,0082,-3.06,-2.57,4.0000,230.0000
1984-06-15 15:00:00 UTC,2445867.125000,29.6633,-93.3933,0082,-2.62,-1.45,3.0000,241.0000
1984-06-15 15:30:00 UTC,2445867.145833,29.6633,-93.3933,0082,-1.90,-0.62,2.0000,252.0000
1984-06-15 16:00:00 UTC,2445867.166667,29.6633,-93.3933,0082,-0.00,0.00,0.0000,296.0000
1984-06-15 16:30:00 UTC,2445867.187500,29.6633,-93.3933,0082,0.48,0.87,1.0000,29.0000
1984-06-15 17:00:00 UTC,2445867.208333,29.6633,-93.3933,0082,1.06,1.70,2.0000,32.0000
1984-06-15 17:30:00 UTC,2445867.229167,29.6633,-93.3933,0082,1.45,2.62,3.0000,29.0000
1984-06-15 18:00:00 UTC,2445867.250000,29.6633,-93.3933,0082,1.08,2.80,3.0000,21.0000
1984-06-15 18:30:00 UTC,2445867.270833,29.6633,-93.3933,0082,1.63,4.73,5.0000,19.0000
1984-06-15 19:00:00 UTC,2445867.291667,29.6633,-93.3933,0082,2.05,5.64,6.0000,20.0000
1984-06-15 19:30:00 UTC,2445867.312500,29.6633,-93.3933,0082,1.65,5.77,6.0000,16.0000
1984-06-15 20:00:00 UTC,2445867.333333,29.6633,-93.3933,0082,1.14,5.89,6.0000,11.0000
1984-06-15 20:30:00 UTC,2445867.354167,29.6633,-93.3933,0082,1.04,4.89,5.0000,12.0000
1984-06-15 21:00:00 UTC,2445867.375000,29.6633,-93.3933,0082,0.56,3.96,4.0000,8.0000
1984-06-15 21:30:00 UTC,2445867.395833,29.6633,-93.3933,0082,-0.47,2.96,3.0000,351.0000
1984-06-15 22:00:00 UTC,2445867.416667,29.6633,-93.3933,0082,-0.65,1.89,2.0000,341.0000
1984-06-15 22:30:00 UTC,2445867.437500,29.6633,-93.3933,0082,-0.36,0.93,1.0000,339.0000
1984-06-15 23:00:00 UTC,2445867.458333,29.6633,-93.3933,0082,-0.00,0.00,0.0000,312.0000
1984-06-15 23:30:00 UTC,2445867.479167,29.6633,-93.3933,0082,-0.52,0.86,1.0000,329.0000
1984-06-16 00:00:00 UTC,2445867.500000,29.6633,-93.3933,0082,-0.65,1.89,2.0000,341.0000
1984-06-16 00:30:00 UTC,2445867.520833,29.6633,-93.3933,0082,-0.55,1.92,2.0000,344.0000
1984-06-16 01:00:00 UTC,2445867.541667,29.6633,-93.3933,0082,-0.31,1.98,2.0000,351.0000
1984-06-16 01:30:00 UTC,2445867.562500,29.6633,-93.3933,0082,0.55,1.92,2.0000,16.0000
1984-06-16 02:00:00 UTC,2445867.583333,29.6633,-93.3933,0082,1.45,2.62,3.0000,29.0000
1984-06-16 02:30:00 UTC,2445867.604167,29.6633,-93.3933,0082,2.42,4.37,5.0000,29.0000
1984-06-16 03:00:00 UTC,2445867.625000,29.6633,-93.3933,0082,3.29,6.18,7.0000,28.0000
1984-06-16 03:30:00 UTC,2445867.645833,29.6633,-93.3933,0082,4.24,6.78,8.0000,32.0000
1984-06-16 04:00:00 UTC,2445867.666667,29.6633,-93.3933,0082,4.90,7.55,9.0000,33.0000
1984-06-16 04:30:00 UTC,2445867.687500,29.6633,-93.3933,0082,4.69,8.83,10.0000,28.0000
1984-06-16 05:00:00 UTC,2445867.708333,29.6633,-93.3933,0082,3.66,8.22,9.0000,24.0000
1984-06-16 05:30:00 UTC,2445867.729167,29.6633,-93.3933,0082,3.00,7.42,8.0000,22.0000
1984-06-16 06:00:00 UTC,2445867.750000,29.6633,-93.3933,0082,2.28,6.62,7.0000,19.0000
1984-06-16 06:30:00 UTC,2445867.770833,29.6633,-93.3933,0082,0.94,5.93,6.0000,9.0000
1984-06-16 07:00:00 UTC,2445867.791667,29.6633,-93.3933,0082,-0.61,4.96,5.0000,353.0000
1984-06-16 07:30:00 UTC,2445867.812500,29.6633,-93.3933,0082,-1.75,3.60,4.0000,334.0000
1984-06-16 08:00:00 UTC,2445867.833333,29.6633,-93.3933,0082,-2.80,4.15,5.0000,326.0000
1984-06-16 08:30:00 UTC,2445867.854167,29.6633,-93.3933,0082,-2.18,3.35,4.0000,327.0000
1984-06-16 09:00:00 UTC,2445867.875000,29.6633,-93.3933,0082,-1.55,2.57,3.0000,329.0000
1984-06-16 09:30:00 UTC,2445867.895833,29.6633,-93.3933,0082,-1.20,1.60,2.0000,323.0000
1984-06-16 10:00:00 UTC,2445867.916667,29.6633,-93.3933,0082,-1.68,1.09,2.0000,303.0000
1984-06-16 10:30:00 UTC,2445867.937500,29.6633,-93.3933,0082,-1.00,0.02,1.0000,271.0000
1984-06-16 11:00:00 UTC,2445867.958333,29.6633,-93.3933,0082,-1.96,-0.42,2.0000,258.0000
1984-06-16 11:30:00 UTC,2445867.979167,29.6633,-93.3933,0082,-0.97,-0.26,1.0000,255.0000
1984-06-16 12:00:00 UTC,2445868.000000,29.6633,-93.3933,0082,-0.00,-0.00,0.0000,240.0000
1984-06-16 12:30:00 UTC,2445868.020833,29.6633,-93.3933,0082,0.00,-0.00,0.0000,112.0000
1984-06-16 13:00:00 UTC,2445868.041667,29.6633,-93.3933,0082,0.94,-0.34,1.0000,110.0000
1984-06-16 13:30:00 UTC,2445868.062500,29.6633,-93.3933,0082,0.97,-0.26,1.0000,105.0000
1984-06-16 14:00:00 UTC,2445868.083333,29.6633,-93.3933,0082,0.00,-0.00,0.0000,99.0000
1984-06-16 14:30:00 UTC,2445868.104167,29.6633,-93.3933,0082,0.00,0.00,0.0000,25.0000
1984-06-16 15:00:00 UTC,2445868.125000,29.6633,-93.3933,0082,0.48,0.87,1.0000,29.0000
1984-06-16 15:30:00 UTC,2445868.145833,29.6633,-93.3933,0082,1.81,2.40,3.0000,37.0000
1984-06-16 16:00:00 UTC,2445868.166667,29.6633,-93.3933,0082,2.57,3.06,4.0000,40.0000
1984-06-16 16:30:00 UTC,2445868.187500,29.6633,-93.3933,0082,3.15,3.89,5.0000,39.0000
1984-06-16 17:00:00 UTC,2445868.208333,29.6633,-93.3933,0082,1.82,3.56,4.0000,27.0000
1984-06-16 17:30:00 UTC,2445868.229167,29.6633,-93.3933,0082,0.42,3.98,4.0000,6.0000
1984-06-16 18:00:00 UTC,2445868.250000,29.6633,-93.3933,0082,-0.78,4.94,5.0000,351.0000
1984-06-16 18:30:00 UTC,2445868.270833,29.6633,-93.3933,0082,-1.93,6.73,7.0000,344.0000
1984-06-16 19:00:00 UTC,2445868.291667,29.6633,-93.3933,0082,-3.66,8.22,9.0000,336.0000
1984-06-16 19:30:00 UTC,2445868.312500,29.6633,-93.3933,0082,-4.69,8.83,10.0000,332.0000
1984-06-16 20:00:00 UTC,2445868.333333,29.6633,-93.3933,0082,-3.37,8.34,9.0000,338.0000
1984-06-16 20:30:00 UTC,2445868.354167,29.6633,-93.3933,0082,0.70,4.95,5.0000,8.0000
1984-06-16 21:00:00 UTC,2445868.375000,29.6633,-93.3933,0082,4.29,2.58,5.0000,59.0000
1984-06-16 21:30:00 UTC,2445868.395833,29.6633,-93.3933,0082,6.54,2.51,7.0000,69.0000
1984-06-16 22:00:00 UTC,2445868.416667,29.6633,-93.3933,0082,6.76,1.81,7.0000,75.0000
1984-06-16 22:30:00 UTC,2445868.437500,29.6633,-93.3933,0082,6.93,0.97,7.0000,82.0000
1984-06-16 23:00:00 UTC,2445868.458333,29.6633,-93.3933,0082,6.96,0.73,7.0000,84.0000
1984-06-16 23:30:00 UTC,2445868.479167,29.6633,-93.3933,0082,5.96,0.73,6.0000,83.0000
1984-06-17 00:00:00 UTC,2445868.500000,29.6633,-93.3933,0082,4.97,0.52,5.0000,84.0000
1984-06-17 00:30:00 UTC,2445868.520833,29.6633,-93.3933,0082,5.99,-0.31,6.0000,93.0000
1984-06-17 01:00:00 UTC,2445868.541667,29.6633,-93.3933,0082,7.92,-1.11,8.0000,98.0000
1984-06-17 01:30:00 UTC,2445868.562500,29.6633,-93.3933,0082,9.90,-1.39,10.0000,98.0000
1984-06-17 02:00:00 UTC,2445868.583333,29.6633,-93.3933,0082,9.96,-0.87,10.0000,95.0000
1984-06-17 02:30:00 UTC,2445868.604167,29.6633,-93.3933,0082,8.93,-1.10,9.0000,97.0000
1984-06-17 03:00:00 UTC,2445868.625000,29.6633,-93.3933,0082,6.76,-1.81,7.0000,105.0000
1984-06-17 03:30:00 UTC,2445868.645833,29.6633,-93.3933,0082,4.60,-1.95,5.0000,113.0000
1984-06-17 04:00:00 UTC,2445868.666667,29.6633,-93.3933,0082,4.49,-2.19,5.0000,116.0000
1984-06-17 04:30:00 UTC,2445868.687500,29.6633,-93.3933,0082,5.66,-4.11,7.0000,126.0000
1984-06-17 05:00:00 UTC,2445868.708333,29.6633,-93.3933,0082,5.79,-6.89,9.0000,140.0000
1984-06-17 05:30:00 UTC,2445868.729167,29.6633,-93.3933,0082,3.75,-9.27,10.0000,158.0000
1984-06-17 06:00:00 UTC,2445868.750000,29.6633,-93.3933,0082,0.58,-10.98,11.0000,177.0000
1984-06-17 06:30:00 UTC,2445868.770833,29.6633,-93.3933,0082,-3.36,-12.56,13.0000,195.0000
1984-06-17 07:00:00 UTC,2445868.791667,29.6633,-93.3933,0082,-6.79,-12.24,14.0000,209.0000
1984-06-17 07:30:00 UTC,2445868.812500,29.6633,-93.3933,0082,-8.81,-10.88,14.0000,219.0000
1984-06-17 08:00:00 UTC,2445868.833333,29.6633,-93.3933,0082,-10.04,-11.15,15.0000,222.0000
1984-06-17 08:30:00 UTC,2445868.854167,29.6633,-93.3933,0082,-11.15,-12.83,17.0000,221.0000
1984-06-17 09:00:00 UTC,2445868.875000,29.6633,-93.3933,0082,-13.38,-14.86,20.0000,222.0000
1984-06-17 09:30:00 UTC,2445868.895833,29.6633,-93.3933,0082,-16.09,-15.00,22.0000,227.0000
1984-06-17 10:00:00 UTC,2445868.916667,29.6633,-93.3933,0082,-19.17,-14.44,24.0000,233.0000
1984-06-17 10:30:00 UTC,2445868.937500,29.6633,-93.3933,0082,-22.52,-13.00,26.0000,240.0000
1984-06-17 11:00:00 UTC,2445868.958333,29.6633,-93.3933,0082,-24.27,-9.32,26.0000,249.0000
1984-06-17 11:30:00 UTC,2445868.979167,29.6633,-93.3933,0082,-23.18,-6.21,24.0000,255.0000
1984-06-17 12:00:00 UTC,2445869.000000,29.6633,-93.3933,0082,-19.81,-2.78,20.0000,262.0000
1984-06-17 12:30:00 UTC,2445869.020833,29.6633,-93.3933,0082,-14.92,1.57,15.0000,276.0000
1984-06-17 13:00:00 UTC,2445869.041667,29.6633,-93.3933,0082,-11.78,5.49,13.0000,295.0000
1984-06-17 13:30:00 UTC,2445869.062500,29.6633,-93.3933,0082,-10.65,7.46,13.0000,305.0000
1984-06-17 14:00:00 UTC,2445869.083333,29.6633,-93.3933,0082,-8.30,7.22,11.0000,311.0000
1984-06-17 14:30:00 UTC,2445869.104167,29.6633,-93.3933,0082,-6.13,5.14,8.0000,310.0000
1984-06-17 15:00:00 UTC,2445869.125000,29.6633,-93.3933,0082,-4.79,3.61,6.0000,307.0000
1984-06-17 15:30:00 UTC,2445869.145833,29.6633,-93.3933,0082,-5.36,4.50,7.0000,310.0000
1984-06-17 16:00:00 UTC,2445869.166667,29.6633,-93.3933,0082,-4.53,3.94,6.0000,311.0000
1984-06-17 16:30:00 UTC,2445869.187500,29.6633,-93.3933,0082,-2.67,1.36,3.0000,297.0000
1984-06-17 17:00:00 UTC,2445869.208333,29.6633,-93.3933,0082,-1.96,0.38,2.0000,281.0000
1984-06-17 17:30:00 UTC,2445869.229167,29.6633,-93.3933,0082,-3.63,1.69,4.0000,295.0000
1984-06-17 18:00:00 UTC,2445869.250000,29.6633,-93.3933,0082,-3.50,1.94,4.0000,299.0000
1984-06-17 18:30:00 UTC,2445869.270833,29.6633,-93.3933,0082,-5.09,3.18,6.0000,302.0000
1984-06-17 19:00:00 UTC,2445869.291667,29.6633,-93.3933,0082,-6.04,5.25,8.0000,311.0000
1984-06-17 19:30:00 UTC,2445869.312500,29.6633,-93.3933,0082,-4.02,5.73,7.0000,325.0000
1984-06-17 20:00:00 UTC,2445869.333333,29.6633,-93.3933,0082,-1.95,4.60,5.0000,337.0000
1984-06-17 20:30:00 UTC,2445869.354167,29.6633,-93.3933,0082,-1.36,2.67,3.0000,333.0000
1984-06-17 21:00:00 UTC,2445869.375000,29.6633,-93.3933,0082,-0.57,0.82,1.0000,325.0000
1984-06-17 21:30:00 UTC,2445869.395833,29.6633,-93.3933,0082,0.89,-0.45,1.0000,117.0000
1984-06-17 22:00:00 UTC,2445869.416667,29.6633,-93.3933,0082,2.76,-1.17,3.0000,113.0000
1984-06-17 22:30:00 UTC,2445869.437500,29.6633,-93.3933,0082,5.56,-2.25,6.0000,112.0000
1984-06-17 23:00:00 UTC,2445869.458333,29.6633,-93.3933,0082,7.19,-3.51,8.0000,116.0000
1984-06-17 23:30:00 UTC,2445869.479167,29.6633,-93.3933,0082,7.46,-5.03,9.0000,124.0000
1984-06-18 00:00:00 UTC,2445869.500000,29.6633,-93.3933,0082,6.79,-5.90,9.0000,131.0000
1984-06-18 00:30:00 UTC,2445869.520833,29.6633,-93.3933,0082,6.69,-7.43,10.0000,138.0000
1984-06-18 01:00:00 UTC,2445869.541667,29.6633,-93.3933,0082,6.77,-8.67,11.0000,142.0000
1984-06-18 01:30:00 UTC,2445869.562500,29.6633,-93.3933,0082,7.55,-9.33,12.0000,141.0000
1984-06-18 02:00:00 UTC,2445869.583333,29.6633,-93.3933,0082,9.84,-11.32,15.0000,139.0000
1984-06-18 02:30:00 UTC,2445869.604167,29.6633,-93.3933,0082,11.38,-12.63,17.0000,138.0000
1984-06-18 03:00:00 UTC,2445869.625000,29.6633,-93.3933,0082,13.38,-14.86,20.0000,138.0000
1984-06-18 03:30:00 UTC,2445869.645833,29.6633,-93.3933,0082,14.05,-15.61,21.0000,138.0000
1984-06-18 04:00:00 UTC,2445869.666667,29.6633,-93.3933,0082,13.85,-17.10,22.0000,141.0000
1984-06-18 04:30:00 UTC,2445869.687500,29.6633,-93.3933,0082,12.30,-18.24,22.0000,146.0000
1984-06-18 05:00:00 UTC,2445869.708333,29.6633,-93.3933,0082,10.67,-19.24,22.0000,151.0000
1984-06-18 05:30:00 UTC,2445869.729167,29.6633,-93.3933,0082,9.53,-18.71,21.0000,153.0000
1984-06-18 06:00:00 UTC,2445869.750000,29.6633,-93.3933,0082,8.95,-20.10,22.0000,156.0000
1984-06-18 06:30:00 UTC,2445869.770833,29.6633,-93.3933,0082,8.89,-24.43,26.0000,160.0000
1984-06-18 07:00:00 UTC,2445869.791667,29.6633,-93.3933,0082,8.79,-25.53,27.0000,161.0000
1984-06-18 07:30:00 UTC,2445869.812500,29.6633,-93.3933,0082,5.56,-22.32,23.0000,166.0000
1984-06-18 08:00:00 UTC,2445869.833333,29.6633,-93.3933,0082,-2.60,-14.77,15.0000,190.0000
1984-06-18 08:30:00 UTC,2445869.854167,29.6633,-93.3933,0082,-11.33,-8.23,14.0000,234.0000
1984-06-18 09:00:00 UTC,2445869.875000,29.6633,-93.3933,0082,-15.38,-4.41,16.0000,254.0000
1984-06-18 09:30:00 UTC,2445869.895833,29.6633,-93.3933,0082,-16.83,-2.37,17.0000,262.0000
1984-06-18 10:00:00 UTC,2445869.916667,29.6633,-93.3933,0082,-16.00,0.28,16.0000,271.0000
1984-06-18 10:30:00 UTC,2445869.937500,29.6633,-93.3933,0082,-14.82,2.35,15.0000,279.0000
1984-06-18 11:00:00 UTC,2445869.958333,29.6633,-93.3933,0082,-12.84,2.03,13.0000,279.0000
1984-06-18 11:30:00 UTC,2445869.979167,29.6633,-93.3933,0082,-11.93,1.25,12.0000,276.0000
1984-06-18 12:00:00 UTC,2445870.000000,29.6633,-93.3933,0082,-10.89,1.53,11.0000,278.0000
1984-06-18 12:30:00 UTC,2445870.020833,29.6633,-93.3933,0082,-8.69,2.33,9.0000,285.0000
1984-06-18 13:00:00 UTC,2445870.041667,29.6633,-93.3933,0082,-7.47,2.87,8.0000,291.0000
1984-06-18 13:30:00 UTC,2445870.062500,29.6633,-93.3933,0082,-7.25,3.38,8.0000,295.0000
1984-06-18 14:00:00 UTC,2445870.083333,29.6633,-93.3933,0082,-7.00,3.88,8.0000,299.0000
1984-06-18 14:30:00 UTC,2445870.104167,29.6633,-93.3933,0082,-5.39,2.63,6.0000,296.0000
1984-06-18 15:00:00 UTC,2445870.125000,29.6633,-93.3933,0082,-3.86,1.04,4.0000,285.0000
1984-06-18 15:30:00 UTC,2445870.145833,29.6633,-93.3933,0082,-3.95,0.63,4.0000,279.0000
1984-06-18 16:00:00 UTC,2445870.166667,29.6633,-93.3933,0082,-2.99,0.26,3.0000,275.0000
1984-06-18 16:30:00 UTC,2445870.187500,29.6633,-93.3933,0082,-1.00,-0.00,1.0000,270.0000
1984-06-18 17:00:00 UTC,2445870.208333,29.6633,-93.3933,0082,-0.00,0.00,0.0000,272.0000
1984-06-18 17:30:00 UTC,2445870.229167,29.6633,-93.3933,0082,0.00,-0.00,0.0000,170.0000
1984-06-18 18:00:00 UTC,2445870.250000,29.6633,-93.3933,0082,-0.07,-1.00,1.0000,184.0000
1984-06-18 18:30:00 UTC,2445870.270833,29.6633,-93.3933,0082,-0.42,-2.97,3.0000,188.0000
1984-06-18 19:00:00 UTC,2445870.291667,29.6633,-93.3933,0082,-0.28,-3.99,4.0000,184.0000
1984-06-18 19:30:00 UTC,2445870.312500,29.6633,-93.3933,0082,0.07,-4.00,4.0000,179.0000
1984-06-18 20:00:00 UTC,2445870.333333,29.6633,-93.3933,0082,0.05,-3.00,3.0000,179.0000
1984-06-18 20:30:00 UTC,2445870.354167,29.6633,-93.3933,0082,-0.61,-4.96,5.0000,187.0000
1984-06-18 21:00:00 UTC,2445870.375000,29.6633,-93.3933,0082,-0.87,-4.92,5.0000,190.0000
1984-06-18 21:30:00 UTC,2445870.395833,29.6633,-93.3933,0082,-0.28,-3.99,4.0000,184.0000
1984-06-18 22:00:00 UTC,2445870.416667,29.6633,-93.3933,0082,0.49,-3.97,4.0000,173.0000
1984-06-18 22:30:00 UTC,2445870.437500,29.6633,-93.3933,0082,0.49,-3.97,4.0000,173.0000
1984-06-18 23:00:00 UTC,2445870.458333,29.6633,-93.3933,0082,0.14,-4.00,4.0000,178.0000
1984-06-18 23:30:00 UTC,2445870.479167,29.6633,-93.3933,0082,-0.17,-5.00,5.0000,182.0000
1984-06-19 00:00:00 UTC,2445870.500000,29.6633,-93.3933,0082,-0.49,-6.98,7.0000,184.0000
1984-06-19 00:30:00 UTC,2445870.520833,29.6633,-93.3933,0082,0.00,-8.00,8.0000,180.0000
1984-06-19 01:00:00 UTC,2445870.541667,29.6633,-93.3933,0082,1.66,-7.83,8.0000,168.0000
1984-06-19 01:30:00 UTC,2445870.562500,29.6633,-93.3933,0082,3.80,-8.16,9.0000,155.0000
1984-06-19 02:00:00 UTC,2445870.583333,29.6633,-93.3933,0082,5.15,-8.57,10.0000,149.0000
1984-06-19 02:30:00 UTC,2445870.604167,29.6633,-93.3933,0082,4.38,-8.99,10.0000,154.0000
1984-06-19 03:00:00 UTC,2445870.625000,29.6633,-93.3933,0082,2.08,-9.78,10.0000,168.0000
1984-06-19 03:30:00 UTC,2445870.645833,29.6633,-93.3933,0082,-1.56,-8.86,9.0000,190.0000
1984-06-19 04:00:00 UTC,2445870.666667,29.6633,-93.3933,0082,-4.36,-6.71,8.0000,213.0000
1984-06-19 04:30:00 UTC,2445870.687500,29.6633,-93.3933,0082,-4.09,-4.39,6.0000,223.0000
1984-06-19 05:00:00 UTC,2445870.708333,29.6633,-93.3933,0082,-2.05,-2.19,3.0000,223.0000
1984-06-19 05:30:00 UTC,2445870.729167,29.6633,-93.3933,0082,-0.54,-0.84,1.0000,213.0000
1984-06-19 06:00:00 UTC,2445870.750000,29.6633,-93.3933,0082,-0.54,-0.84,1.0000,213.0000
1984-06-19 06:30:00 UTC,2445870.770833,29.6633,-93.3933,0082,-0.00,-0.00,0.0000,215.0000
1984-06-19 07:00:00 UTC,2445870.791667,29.6633,-93.3933,0082,-0.00,-0.00,0.0000,188.0000
1984-06-19 07:30:00 UTC,2445870.812500,29.6633,-93.3933,0082,0.00,-0.00,0.0000,109.0000
1984-06-19 08:00:00 UTC,2445870.833333,29.6633,-93.3933,0082,0.91,-0.41,1.0000,114.0000
1984-06-19 08:30:00 UTC,2445870.854167,29.6633,-93.3933,0082,0.93,-0.37,1.0000,112.0000
1984-06-19 09:00:00 UTC,2445870.875000,29.6633,-93.3933,0082,2.74,-1.22,3.0000,114.0000
1984-06-19 09:30:00 UTC,2445870.895833,29.6633,-93.3933,0082,4.19,-2.72,5.0000,123.0000
1984-06-19 10:00:00 UTC,2445870.916667,29.6633,-93.3933,0082,3.99,-3.01,5.0000,127.0000
1984-06-19 10:30:00 UTC,2445870.937500,29.6633,-93.3933,0082,4.46,-2.27,5.0000,117.0000
1984-06-19 11:00:00 UTC,2445870.958333,29.6633,-93.3933,0082,5.48,-2.44,6.0000,114.0000
1984-06-19 11:30:00 UTC,2445870.979167,29.6633,-93.3933,0082,4.39,-4.09,6.0000,133.0000
1984-06-19 12:00:00 UTC,2445871.000000,29.6633,-93.3933,0082,1.45,-5.82,6.0000,166.0000
1984-06-19 12:30:00 UTC,2445871.020833,29.6633,-93.3933,0082,-0.28,-8.00,8.0000,182.0000
1984-06-19 13:00:00 UTC,2445871.041667,29.6633,-93.3933,0082,-2.08,-9.78,10.0000,192.0000
1984-06-19 13:30:00 UTC,2445871.062500,29.6633,-93.3933,0082,-3.58,-10.40,11.0000,199.0000
1984-06-19 14:00:00 UTC,2445871.083333,29.6633,-93.3933,0082,-1.91,-9.82,10.0000,191.0000
1984-06-19 14:30:00 UTC,2445871.104167,29.6633,-93.3933,0082,1.91,-10.83,11.0000,170.0000
1984-06-19 15:00:00 UTC,2445871.125000,29.6633,-93.3933,0082,3.80,-12.43,13.0000,163.0000
1984-06-19 15:30:00 UTC,2445871.145833,29.6633,-93.3933,0082,2.08,-11.82,12.0000,170.0000
1984-06-19 16:00:00 UTC,2445871.166667,29.6633,-93.3933,0082,-0.31,-8.99,9.0000,182.0000
1984-06-19 16:30:00 UTC,2445871.187500,29.6633,-93.3933,0082,-1.29,-4.83,5.0000,195.0000
1984-06-19 17:00:00 UTC,2445871.208333,29.6633,-93.3933,0082,-0.85,-1.81,2.0000,205.0000
1984-06-19 17:30:00 UTC,2445871.229167,29.6633,-93.3933,0082,-0.36,-0.93,1.0000,201.0000
1984-06-19 18:00:00 UTC,2445871.250000,29.6633,-93.3933,0082,0.00,-0.00,0.0000,98.0000
1984-06-19 18:30:00 UTC,2445871.270833,29.6633,-93.3933,0082,-0.90,0.44,1.0000,296.0000
1984-06-19 19:00:00 UTC,2445871.291667,29.6633,-93.3933,0082,-2.57,1.55,3.0000,301.0000
1984-06-19 19:30:00 UTC,2445871.312500,29.6633,-93.3933,0082,-5.28,4.59,7.0000,311.0000
1984-06-19 20:00:00 UTC,2445871.333333,29.6633,-93.3933,0082,-5.54,7.09,9.0000,322.0000
1984-06-19 20:30:00 UTC,2445871.354167,29.6633,-93.3933,0082,-5.33,9.62,11.0000,331.0000
1984-06-19 21:00:00 UTC,2445871.375000,29.6633,-93.3933,0082,-4.65,9.97,11.0000,335.0000
1984-06-19 21:30:00 UTC,2445871.395833,29.6633,-93.3933,0082,-4.47,10.05,11.0000,336.0000
1984-06-19 22:00:00 UTC,2445871.416667,29.6633,-93.3933,0082,-3.76,10.34,11.0000,340.0000
1984-06-19 22:30:00 UTC,2445871.437500,29.6633,-93.3933,0082,-2.42,9.70,10.0000,346.0000
1984-06-19 23:00:00 UTC,2445871.458333,29.6633,-93.3933,0082,-1.25,8.91,9.0000,352.0000
1984-06-19 23:30:00 UTC,2445871.479167,29.6633,-93.3933,0082,-0.85,6.95,7.0000,353.0000
1984-06-20 00:00:00 UTC,2445871.500000,29.6633,-93.3933,0082,-1.25,5.87,6.0000,348.0000
1984-06-20 00:30:00 UTC,2445871.520833,29.6633,-93.3933,0082,-0.90,3.90,4.0000,347.0000
1984-06-20 01:00:00 UTC,2445871.541667,29.6633,-93.3933,0082,-0.07,2.00,2.0000,358.0000
1984-06-20 01:30:00 UTC,2445871.562500,29.6633,-93.3933,0082,0.00,0.00,0.0000,11.0000
1984-06-20 02:00:00 UTC,2445871.583333,29.6633,-93.3933,0082,0.97,0.26,1.0000,75.0000
1984-06-20 02:30:00 UTC,2445871.604167,29.6633,-93.3933,0082,3.97,0.49,4.0000,83.0000
1984-06-20 03:00:00 UTC,2445871.625000,29.6633,-93.3933,0082,3.95,-0.63,4.0000,99.0000
1984-06-20 03:30:00 UTC,2445871.645833,29.6633,-93.3933,0082,2.49,-1.68,3.0000,124.0000
1984-06-20 04:00:00 UTC,2445871.666667,29.6633,-93.3933,0082,0.62,-0.79,1.0000,142.0000
1984-06-20 04:30:00 UTC,2445871.687500,29.6633,-93.3933,0082,0.00,-0.00,0.0000,167.0000
1984-06-20 05:00:00 UTC,2445871.708333,29.6633,-93.3933,0082,-0.00,-0.00,0.0000,202.0000
1984-06-20 05:30:00 UTC,2445871.729167,29.6633,-93.3933,0082,-0.00,-0.00,0.0000,181.0000
1984-06-20 06:00:00 UTC,2445871.750000,29.6633,-93.3933,0082,0.00,0.00,0.0000,34.0000